EDT,Max TemperatureF,Mean TemperatureF,Min TemperatureF,Max Dew PointF,MeanDew PointF,Min DewpointF,Max Humidity, Mean Humidity, Min Humidity, Max Sea Level PressureIn, Mean Sea Level PressureIn, Min Sea Level PressureIn, Max VisibilityMiles, Mean VisibilityMiles, Min VisibilityMiles, Max Wind SpeedMPH, Mean Wind SpeedMPH, Max Gust SpeedMPH,PrecipitationIn, CloudCover, Events, WindDirDegrees
2011-10-1,68,58,47,54,43,36,86,60,34,29.99,29.87,29.78,10,10,10,20,9,25,0.00,1,,310
2011-10-2,66,55,43,45,40,35,92,63,34,30.05,30.00,29.96,10,10,10,17,6,25,0.00,0,,301
2011-10-3,71,55,38,51,42,36,100,64,27,30.16,30.10,30.05,10,9,7,15,3,21,0.00,1,,274
2011-10-4,76,60,44,53,48,43,100,68,36,30.22,30.19,30.15,10,10,10,2,4,2,0.00,0,,355
2011-10-5,79,63,47,57,51,46,100,70,39,30.26,30.21,30.16,10,9,5,12,2,15,0.00,0,,30
2011-10-6,79,64,49,53,50,48,100,68,35,30.33,30.27,30.22,10,9,5,17,5,21,0.00,0,,49
2011-10-7,78,64,50,55,51,48,96,68,40,30.41,30.37,30.32,10,10,10,13,5,18,0.00,0,,48
2011-10-8,78,66,53,54,50,43,93,62,31,30.46,30.40,30.36,10,10,10,15,7,20,0.00,0,,48
2011-10-9,79,69,58,61,58,53,86,70,54,30.36,30.30,30.24,10,10,10,18,9,25,0.00,3,,55
2011-10-10,74,69,64,65,61,55,87,78,68,30.22,30.11,30.03,10,10,10,15,10,22,T,4,Rain,57
2011-10-11,68,65,61,64,62,59,93,87,81,30.01,29.94,29.88,10,7,2,20,9,28,0.74,8,Rain,54
2011-10-12,83,74,65,73,69,62,100,81,62,29.87,29.79,29.74,10,6,0,15,1,22,1.07,7,Fog-Rain,95
2011-10-13,81,72,63,72,67,60,100,79,58,29.76,29.71,29.62,10,6,1,16,5,26,0.08,6,,198
2011-10-14,78,67,56,60,54,44,97,64,31,29.86,29.71,29.62,10,10,8,21,9,28,0.03,3,Rain,247
2011-10-15,80,64,48,53,49,42,96,62,28,30.02,29.95,29.88,10,10,10,20,5,25,0.00,0,,273
2011-10-16,79,61,43,51,46,40,100,63,25,30.15,30.07,30.01,10,10,10,10,3,16,0.00,0,,189
2011-10-17,86,70,54,57,52,49,93,64,34,30.01,29.96,29.89,10,10,10,5,6,7,0.00,0,,224
2011-10-18,84,69,53,69,61,52,100,76,51,29.90,29.80,29.59,10,6,0,15,3,18,0.29,4,Fog-Rain,143
2011-10-19,79,65,51,70,63,43,100,83,66,29.61,29.44,29.31,10,6,1,30,10,38,0.15,7,Rain,3
2011-10-20,63,54,45,44,42,40,92,68,43,30.00,29.80,29.60,10,10,10,24,11,31,0.00,0,,237
2011-10-21,67,53,39,48,43,38,100,71,42,30.10,30.05,30.01,10,9,6,8,1,15,0.00,0,,313
2011-10-22,69,56,42,50,45,41,100,71,42,30.14,30.09,30.05,10,9,5,10,3,16,0.00,4,,18
2011-10-23,72,57,41,51,45,39,100,69,38,30.15,30.10,30.06,10,8,2,12,2,14,0.00,0,,33
2011-10-24,74,59,44,54,48,44,100,71,41,30.13,30.08,30.02,10,8,4,13,3,18,0.00,0,,359
2011-10-25,74,59,43,50,44,39,100,65,29,30.25,30.19,30.10,10,8,2,15,2,18,0.00,0,,43
2011-10-26,79,61,42,52,48,42,100,68,35,30.18,30.07,29.95,10,8,2,16,5,18,0.00,0,,221
2011-10-27,80,69,57,56,53,50,87,61,35,29.93,29.87,29.80,10,10,9,23,9,33,0.00,0,,231
2011-10-28,60,54,47,53,45,42,93,75,57,30.07,30.02,29.89,10,10,5,17,9,25,T,6,,53
2011-10-29,59,47,35,45,42,32,100,74,47,30.14,29.96,29.88,10,6,1,20,8,25,0.06,6,Rain,337
2011-10-30,61,46,31,39,33,30,100,67,33,30.35,30.26,30.16,10,10,8,12,2,21,0.00,0,,54
2011-10-31,52,43,34,48,43,33,100,80,59,30.34,30.22,30.16,10,6,2,13,5,15,0.47,6,Rain,7